Location: Cieszkowy
(50.3290°N, 20.5336°E)
Time: 00:41:58
(UTC+00:00)

Cosmos 1937 Rocket - Pass Details

Date: 15 June 2024
Orbit: 745 x 777 km, 74.0° (Epoch: 18 July)

Event Time Altitude Azimuth Distance (km) Brightness Sun altitude
Exits shadow 00:57:50 13° 221° (SW) 2,111 5.1 -10.2°
Maximum altitude 01:02:27 57° 298° (WNW) 902 3.9 -9.8°
Drops below altitude 10° 01:07:38 10° 18° (NNE) 2,311 7.4 -9.3°
Sets 01:10:03 0° 23° (NNE) 3,236 8.7 -9.1°
